[[{"header":{"parameterUnit":"m.s-1","parameterCategory":1,"la1":30.2991,"la2":30.254,"lo1":-89.0895,"lo2":-89.0444,"dy":0.0017,"dx":0.0017,"nx":28,"ny":28,"refTime":"2025-08-09T21:00:00:Z","depth":0,"parameterNumber":2,"parameterNumberName":"U-component_of_WINDS"},"data":[0,0,0,0,0,0,0,0,0,0,0,0,0,0,0,0,0,0,0,0,0,0,0,0,0,0,0,0,0,0,0,0,0,0,0,0,0,0,0,0,0,0,0,0,0,0,0,0,0,0,0,0,0,0,0,0,0,0,-0.6992,-0.6992,0,-0.7028,-0.7029,-0.7029,-0.6985,-0.6984,-0.6982,-0.6981,-0.7023,-0.7025,-0.7028,0,0,0,0,0,0,0,0,0,0,0,0,0,-0.6889,-0.6891,-0.6992,-0.6992,-0.6993,-0.7028,-0.7029,-0.7029,-0.6986,-0.6984,-0.6982,-0.698,-0.7022,-0.7025,-0.7028,0,0,0,0,0,0,0,0,0,0,0,0,0,-0.6931,-0.6892,-0.6992,-0.6975,-0.6974,-0.7028,-0.7029,-0.7029,-0.6986,-0.6984,-0.6981,-0.6979,-0.7021,-0.7025,-0.7029,-0.7102,0,0,-0.7041,-0.7042,0,0,0,0,0,0,0,0,-0.6928,-0.6934,-0.6977,-0.6976,-0.6975,-0.7,-0.7008,-0.7054,-0.6987,-0.6982,-0.698,-0.6978,-0.7017,-0.7021,-0.7034,-0.7104,-0.7106,-0.7041,-0.7043,-0.7045,-0.7046,0,0,0,0,0,0,0,-0.6925,-0.6933,-0.7006,-0.6978,-0.6977,-0.6967,-0.697,-0.7016,-0.7013,-0.6982,-0.6979,-0.6983,-0.7016,-0.703,-0.7034,-0.7106,-0.7041,-0.7044,-0.7047,-0.7048,-0.7239,-0.7242,0,0,0,0,0,0,-0.6924,-0.693,-0.7005,-0.7007,-0.6945,-0.6971,-0.6975,-0.6994,-0.7012,-0.7013,-0.6985,-0.6981,-0.7024,-0.703,-0.7036,-0.7123,-0.7045,-0.7049,-0.7051,-0.7236,-0.724,-0.7243,0,0,0,0,0,0,-0.6922,-0.6931,-0.7004,-0.6968,-0.6977,-0.6975,-0.6998,-0.6996,-0.701,-0.7015,-0.7015,-0.7,-0.7023,-0.703,-0.7086,-0.7124,-0.7051,-0.7054,-0.7233,-0.7237,-0.7241,-0.7298,0,0,0,0,0,0,-0.6919,-0.693,-0.6957,-0.6969,-0.6979,-0.7052,-0.7,-0.6999,-0.7016,-0.7011,-0.7028,-0.7029,-0.7021,-0.708,-0.7089,-0.7128,-0.7057,-0.723,-0.7235,-0.724,-0.7293,-0.7303,-0.7313,0,0,0,0,0,-0.6915,-0.6973,-0.6959,-0.6968,-0.7012,-0.7054,-0.706,-0.7049,-0.702,-0.7047,-0.705,-0.7028,-0.7118,-0.7086,-0.7096,-0.7137,-0.7227,-0.7234,-0.7239,-0.7288,-0.7301,-0.7312,0,0,0,0,0,0,-0.6968,-0.6974,-0.6959,-0.7021,-0.7037,-0.7046,-0.7081,-0.7063,-0.7089,-0.7083,-0.7069,-0.7074,-0.7133,-0.714,-0.7104,-0.7209,-0.7168,-0.7177,-0.7202,-0.7214,-0.7224,-0.7221,-0.7061,0,0,0,0,0,-0.6986,-0.7018,-0.7023,-0.7078,-0.7086,-0.7083,-0.71,-0.709,-0.7107,-0.7114,-0.7121,-0.7139,-0.7172,-0.7193,-0.7223,-0.7293,-0.7297,-0.7326,-0.7336,-0.7344,-0.7352,-0.739,-0.7403,-0.7262,-0.7262,-0.7262,0,0,-0.7026,-0.7033,-0.7055,-0.7089,-0.71,-0.7134,-0.7089,-0.7127,-0.7153,-0.712,-0.7172,-0.7179,-0.7198,-0.7261,-0.7289,-0.7269,-0.7392,-0.7352,-0.7359,-0.7362,-0.7398,-0.7411,-0.7423,-0.7266,-0.7266,-0.7265,0,0,-0.7115,-0.7123,-0.717,-0.7182,-0.7198,-0.7195,-0.7206,-0.7218,-0.722,-0.7272,-0.7248,-0.728,-0.7335,-0.735,-0.7365,-0.7459,-0.744,-0.747,-0.7522,-0.7559,-0.757,-0.758,-0.7614,-0.7626,-0.7477,-0.7477,-0.7477,0,-0.7162,-0.7212,-0.7197,-0.7237,-0.7253,-0.7223,-0.727,-0.7283,-0.731,-0.7322,-0.7298,-0.7367,-0.7379,-0.7445,-0.7467,-0.748,-0.7494,-0.7468,-0.7569,-0.7579,-0.7588,-0.762,-0.7633,-0.7481,-0.748,-0.748,-0.748,0,-0.7269,-0.7304,-0.734,-0.7364,-0.7384,-0.7428,-0.7421,-0.7443,-0.7431,-0.7431,-0.7485,-0.7497,-0.7529,-0.7543,-0.7533,-0.7608,-0.7595,-0.7571,-0.753,-0.7605,-0.7635,-0.7647,-0.7486,-0.7484,-0.7483,-0.7483,0,0,-0.7393,-0.7407,-0.7421,-0.7431,-0.7447,-0.7475,-0.7518,-0.7547,-0.7566,-0.7586,-0.7622,-0.767,-0.7647,-0.7664,-0.7655,-0.7687,-0.7761,-0.7659,-0.7659,-0.7678,-0.7846,-0.7864,-0.7879,-0.7749,-0.7751,-0.7753,-0.7844,0,-0.7482,-0.7554,-0.7542,-0.7613,-0.7645,-0.7617,-0.7654,-0.7669,-0.767,-0.7699,-0.77,-0.7734,-0.7701,-0.7711,-0.7742,-0.7746,-0.7795,-0.7739,-0.7784,-0.7785,-0.778,-0.7894,-0.7914,-0.8,-0.7856,-0.7858,-0.7859,0,-0.7596,-0.7617,-0.7691,-0.7701,-0.7714,-0.7748,-0.7774,-0.7801,-0.7818,-0.7816,-0.7835,-0.7819,-0.7864,-0.7821,-0.7883,-0.7845,-0.7862,-0.7867,-0.787,-0.7874,-0.7827,-0.7902,-0.8027,-0.804,-0.7878,-0.7876,-0.7875,0,-0.7679,-0.7727,-0.7776,-0.7786,-0.78,-0.7824,-0.7831,-0.7845,-0.7863,-0.7886,-0.7898,-0.7927,-0.7943,-0.7966,-0.7959,-0.7929,-0.8022,-0.798,-0.8023,-0.8024,-0.8045,-0.8044,-0.8174,-0.8056,-0.8055,-0.8055,-0.8055,0,-0.778,-0.7826,-0.7814,-0.7845,-0.7896,-0.7882,-0.7933,-0.7937,-0.7949,-0.7981,-0.7959,-0.799,-0.7979,-0.801,-0.8006,-0.8057,-0.8065,-0.8066,-0.8064,-0.8068,-0.8068,-0.808,-0.8074,-0.8059,-0.8058,-0.8057,-0.8057,0,-0.7882,-0.7875,-0.7928,-0.7935,-0.7938,-0.7976,-0.7983,-0.8013,-0.8011,-0.8052,-0.8061,-0.806,-0.8095,-0.8091,-0.8131,-0.8127,-0.8192,-0.8183,-0.8186,-0.8184,-0.8228,-0.8224,-0.8371,-0.839,-0.8259,-0.826,-0.8261,0,-0.7947,-0.7982,-0.7992,-0.8011,-0.802,-0.8051,-0.8069,-0.8056,-0.8076,-0.8097,-0.8125,-0.8157,-0.8182,-0.824,-0.8244,-0.8274,-0.8266,-0.8316,-0.8271,-0.8273,-0.8267,-0.8266,-0.8269,-0.8325,-0.8326,-0.8327,-0.8328,0,-0.8064,-0.8058,-0.8084,-0.8109,-0.8131,-0.815,-0.8168,-0.8185,-0.8174,-0.8198,-0.8232,-0.8252,-0.8292,-0.8325,-0.8353,-0.8362,-0.8344,-0.8342,-0.8354,-0.8359,-0.8359,-0.836,-0.821,-0.8339,-0.8338,-0.8337,-0.8337,-0.8336,-0.8149,-0.8179,-0.819,-0.822,-0.8231,-0.8248,-0.8276,-0.8278,-0.8305,-0.8335,-0.8327,-0.8366,-0.8382,-0.8418,-0.843,-0.8461,-0.8443,-0.846,-0.8465,-0.8469,-0.8475,-0.8353,-0.8466,-0.8466,-0.8466,-0.8466,-0.8465,0,-0.8265,-0.8271,-0.8298,-0.8322,-0.8346,-0.8324,-0.8343,-0.8364,-0.8399,-0.8414,-0.8439,-0.8479,-0.8511,-0.8516,-0.8547,-0.8571,-0.8564,-0.858,-0.8578,-0.8581,-0.8489,-0.8476,-0.8585,-0.8585,-0.8585,-0.8585,-0.8585,-0.8585,-0.8328,-0.8376,-0.8372,-0.8426,-0.8432,-0.8469,-0.8481,-0.8497,-0.8509,-0.8554,-0.8579,-0.8582,-0.8594,-0.8625,-0.8654,-0.8655,-0.8668,-0.8687,-0.8685,-0.8599,-0.8587,-0.8576,-0.8563,-0.869,-0.869,-0.8774,-0.8775,-0.8776]},{"header":{"parameterUnit":"m.s-1","parameterCategory":1,"la1":30.2991,"la2":30.254,"lo1":-89.0895,"lo2":-89.0444,"dy":0.0017,"dx":0.0017,"nx":28,"ny":28,"refTime":"2025-08-09T21:00:00:Z","depth":0,"parameterNumber":3,"parameterNumberName":"V-component_of_WINDS"},"data":[0,0,0,0,0,0,0,0,0,0,0,0,0,0,0,0,0,0,0,0,0,0,0,0,0,0,0,0,0,0,0,0,0,0,0,0,0,0,0,0,0,0,0,0,0,0,0,0,0,0,0,0,0,0,0,0,0,0,0.8699,0.8699,0,0.8702,0.8702,0.8702,0.8677,0.8676,0.8675,0.8675,0.8677,0.8678,0.8679,0,0,0,0,0,0,0,0,0,0,0,0,0,0.8673,0.8674,0.8699,0.8699,0.8699,0.8702,0.8702,0.8702,0.8677,0.8676,0.8675,0.8675,0.8677,0.8678,0.8679,0,0,0,0,0,0,0,0,0,0,0,0,0,0.8681,0.8674,0.8699,0.8687,0.8686,0.8702,0.8702,0.8702,0.8677,0.8676,0.8675,0.8674,0.8677,0.8678,0.8679,0.8706,0,0,0.8682,0.8683,0,0,0,0,0,0,0,0,0.8681,0.8682,0.8689,0.8688,0.8687,0.8688,0.8694,0.8703,0.8677,0.8681,0.8675,0.8674,0.8682,0.8682,0.8685,0.8706,0.8706,0.8682,0.8683,0.8683,0.8684,0,0,0,0,0,0,0,0.868,0.8682,0.87,0.8689,0.8688,0.8682,0.8682,0.8695,0.8687,0.868,0.8678,0.8679,0.8681,0.8684,0.8685,0.8706,0.8682,0.8683,0.8684,0.8684,0.8751,0.8752,0,0,0,0,0,0,0.8681,0.8682,0.87,0.87,0.8681,0.8683,0.8683,0.8689,0.8687,0.8685,0.868,0.8678,0.8683,0.8684,0.8685,0.8717,0.8683,0.8684,0.8685,0.875,0.8751,0.8753,0,0,0,0,0,0,0.8681,0.8683,0.87,0.8691,0.8692,0.8685,0.8691,0.8689,0.8692,0.8686,0.8685,0.8685,0.8682,0.8683,0.8701,0.8717,0.8685,0.8686,0.8749,0.875,0.8752,0.8782,0,0,0,0,0,0,0.868,0.8683,0.8693,0.8691,0.8693,0.8716,0.8692,0.869,0.8694,0.8692,0.869,0.8689,0.8681,0.87,0.8702,0.8718,0.8687,0.8747,0.8749,0.8751,0.8779,0.8784,0.8789,0,0,0,0,0,0.8679,0.8701,0.8694,0.8696,0.8705,0.8717,0.8718,0.8709,0.8696,0.8706,0.8702,0.8689,0.8715,0.8702,0.8704,0.8721,0.8746,0.8749,0.8751,0.8777,0.8783,0.8788,0,0,0,0,0,0,0.8706,0.8701,0.8693,0.8714,0.8717,0.8713,0.8726,0.8715,0.8721,0.8718,0.8706,0.8706,0.8726,0.8725,0.8711,0.8747,0.8728,0.8731,0.8747,0.8753,0.8757,0.8757,0.8687,0,0,0,0,0,0.8714,0.8724,0.8719,0.8739,0.8741,0.8733,0.8738,0.873,0.8732,0.8733,0.873,0.8732,0.8741,0.8747,0.8754,0.8779,0.8779,0.8792,0.8796,0.88,0.8803,0.8817,0.8823,0.8761,0.8761,0.8761,0,0,0.8731,0.873,0.8737,0.8744,0.8745,0.8756,0.8734,0.8746,0.8754,0.8735,0.8751,0.875,0.8751,0.8773,0.8783,0.8773,0.882,0.8803,0.8806,0.8807,0.882,0.8826,0.8831,0.8763,0.8762,0.8762,0,0,0.8768,0.8768,0.8785,0.8786,0.8788,0.8783,0.8787,0.8785,0.8784,0.88,0.8786,0.8796,0.881,0.8812,0.8815,0.8854,0.8843,0.8857,0.8881,0.8895,0.89,0.8904,0.8918,0.8924,0.886,0.886,0.886,0,0.879,0.8805,0.8795,0.8809,0.8813,0.8796,0.8813,0.8814,0.8818,0.8822,0.8811,0.883,0.8829,0.8852,0.8861,0.8864,0.8869,0.8857,0.89,0.8904,0.8908,0.8921,0.8927,0.8862,0.8862,0.8862,0.8861,0,0.8832,0.8843,0.8857,0.8861,0.8867,0.8882,0.8874,0.8881,0.8873,0.887,0.8887,0.8887,0.8894,0.8899,0.8891,0.892,0.8914,0.8902,0.8882,0.8916,0.8928,0.8933,0.8864,0.8864,0.8863,0.8863,0,0,0.8885,0.8884,0.8889,0.8892,0.8892,0.8901,0.8916,0.8923,0.893,0.8933,0.8946,0.8959,0.8948,0.8951,0.8944,0.8956,0.8988,0.8942,0.8942,0.8951,0.902,0.903,0.9036,0.898,0.8981,0.8982,0.902,0,0.8922,0.8947,0.8938,0.8964,0.8975,0.8959,0.8972,0.8974,0.8972,0.898,0.8977,0.8987,0.8971,0.8973,0.8984,0.8981,0.9001,0.8978,0.8992,0.8992,0.8992,0.9043,0.9053,0.9089,0.9025,0.9026,0.9027,0,0.8967,0.8973,0.9,0.9,0.9004,0.9016,0.9023,0.9031,0.9034,0.9031,0.9035,0.9025,0.904,0.9021,0.9042,0.9026,0.9031,0.9031,0.9032,0.9033,0.9012,0.9045,0.9101,0.9106,0.9034,0.9034,0.9033,0,0.9004,0.9019,0.9037,0.9039,0.9039,0.9048,0.9049,0.905,0.9055,0.9061,0.9065,0.9072,0.9076,0.9082,0.9075,0.9062,0.9097,0.9077,0.9096,0.9096,0.9104,0.9103,0.9161,0.9107,0.9107,0.9106,0.9106,0,0.9046,0.9063,0.9054,0.9065,0.9084,0.9074,0.9093,0.9092,0.9094,0.9105,0.9091,0.9102,0.9092,0.9102,0.9096,0.9114,0.9116,0.9115,0.9113,0.9116,0.9116,0.9119,0.9116,0.9108,0.9108,0.9107,0.9107,0,0.909,0.9084,0.9103,0.9102,0.9102,0.9117,0.9116,0.9126,0.9123,0.9137,0.9139,0.9134,0.9145,0.9138,0.9149,0.9146,0.917,0.9164,0.9169,0.9168,0.9187,0.9185,0.9248,0.9256,0.9197,0.9197,0.9198,0,0.9117,0.913,0.9131,0.9137,0.9139,0.9149,0.9155,0.9146,0.9152,0.9157,0.9167,0.9177,0.9184,0.9202,0.92,0.9208,0.9203,0.9225,0.9204,0.9207,0.9204,0.9204,0.9205,0.9229,0.923,0.923,0.9231,0,0.9166,0.9163,0.9172,0.918,0.9187,0.9192,0.9197,0.9203,0.9194,0.9202,0.9213,0.9219,0.9231,0.9241,0.9248,0.9249,0.9239,0.9237,0.9242,0.9245,0.9248,0.9247,0.9181,0.9236,0.9235,0.9235,0.9234,0.9234,0.9203,0.9214,0.9217,0.9227,0.923,0.9234,0.9245,0.9243,0.9252,0.9261,0.9255,0.9268,0.9271,0.928,0.9282,0.9293,0.9284,0.9291,0.9293,0.9295,0.9297,0.9246,0.9294,0.9294,0.9294,0.9294,0.9293,0,0.9252,0.9253,0.9262,0.927,0.9278,0.9267,0.9272,0.928,0.9292,0.9295,0.9303,0.9317,0.9327,0.9325,0.9334,0.9343,0.9338,0.9346,0.9345,0.9345,0.9304,0.9299,0.9349,0.9349,0.9349,0.9349,0.9349,0.9349,0.9278,0.9297,0.9294,0.9314,0.9315,0.9328,0.9332,0.9337,0.9339,0.9355,0.9363,0.9362,0.9364,0.9373,0.9382,0.9381,0.9385,0.9394,0.9392,0.9354,0.9348,0.9343,0.9338,0.9395,0.9395,0.9432,0.9433,0.9433]}]]